{"data":{"norad_id":58121,"intl_designator":"2023-162D","name":"STARLINK-30799","alt_names":[],"object_type":"PAYLOAD","status":"ACTIVE","operator":null,"country":"US","launch_date":"2023-10-22","launch_site_code":"AFETR","launch_vehicle":null,"mission":null,"orbit_class":"UNKNOWN","rcs_meters":null,"size_class":null,"mass_kg":null,"dimensions":null,"purposes":["comms"],"wikipedia_slug":null,"has_3d_model":false,"image_url":null,"decayed_at":null,"tle_current":{"epoch":"2026-05-25T03:51:12.530016Z","epoch_age_seconds":55035,"freshness":"FRESH","line1":"1 58121U 23162D   26145.16056169  .00000749  00000+0  36752-4 0  9999","line2":"2 58121  43.0049  60.5023 0001035 271.8374  88.2359 15.27582538144006","mean_motion":15.27582538,"eccentricity":0.0001035,"inclination_deg":43.0049,"raan_deg":60.5023,"arg_perigee_deg":271.8374,"mean_anomaly_deg":88.2359,"bstar":3.6752e-5,"rev_number":14400,"period_min":94.266592094286,"perigee_km":482.33136439076,"apogee_km":483.75162833951,"semimajor_km":6861.1784963651,"source":"CELESTRAK","updated_at":"2026-05-25T13:38:18.531181Z"}}}